timestamp,wind_dir_avg,wind_spd_avg,wind_spd_max_dir,wind_spd_gust,battery_voltage,lat,long
2021-11-18 00:04:01+00:00,339.0,9.49,340.0,10.87,12.57,47.59359,-54.27349
2021-11-18 00:14:01+00:00,337.0,10.13,324.0,12.26,12.57,47.59359,-54.27349
2021-11-18 00:24:01+00:00,339.0,9.33,339.0,10.4,12.57,47.59359,-54.27349
2021-11-18 00:34:01+00:00,349.0,9.37,351.0,10.48,12.57,47.59359,-54.27349
2021-11-18 00:44:01+00:00,334.0,7.09,337.0,9.13,12.57,47.59359,-54.27349
2021-11-18 00:54:01+00:00,323.0,8.89,316.0,13.14,12.57,47.59359,-54.27349
2021-11-18 01:04:01+00:00,334.0,8.54,340.0,9.81,12.57,47.59359,-54.27349
2021-11-18 01:14:00+00:00,326.0,8.31,308.0,11.29,12.49,47.59359,-54.27349
2021-11-18 01:24:00+00:00,322.0,6.89,303.0,10.25,12.49,47.59359,-54.27349
2021-11-18 01:34:00+00:00,305.0,7.76,294.0,11.27,12.49,47.59359,-54.27349
2021-11-18 01:44:00+00:00,303.0,10.75,309.0,12.81,12.49,47.59359,-54.27349
2021-11-18 01:54:00+00:00,305.0,11.19,308.0,12.65,12.49,47.59359,-54.27349
2021-11-18 02:04:00+00:00,317.0,8.93,309.0,11.79,12.49,47.59359,-54.27349
2021-11-18 02:14:01+00:00,316.0,10.15,312.0,12.63,12.49,47.59359,-54.27349
2021-11-18 02:24:01+00:00,309.0,9.96,301.0,12.02,12.49,47.59359,-54.27349
2021-11-18 02:34:01+00:00,307.0,10.43,302.0,12.31,12.49,47.59359,-54.27349
2021-11-18 02:44:01+00:00,309.0,10.05,307.0,11.82,12.49,47.59359,-54.27349
2021-11-18 02:54:01+00:00,305.0,9.47,299.0,11.97,12.49,47.59359,-54.27349
2021-11-18 03:04:01+00:00,302.0,9.27,298.0,11.52,12.49,47.59359,-54.27349
2021-11-18 03:14:00+00:00,305.0,9.3,301.0,11.26,12.49,47.59359,-54.27349
2021-11-18 03:24:00+00:00,304.0,8.98,300.0,11.56,12.49,47.59359,-54.27349
2021-11-18 03:34:00+00:00,308.0,8.86,300.0,12.06,12.49,47.59359,-54.27349
2021-11-18 03:44:00+00:00,292.0,10.62,297.0,11.93,12.49,47.59359,-54.27349
2021-11-18 03:54:00+00:00,298.0,10.66,298.0,11.94,12.49,47.59359,-54.27349
2021-11-18 04:04:00+00:00,299.0,8.83,292.0,11.3,12.49,47.59359,-54.27349
2021-11-18 04:14:00+00:00,304.0,9.12,296.0,14.83,12.41,47.59359,-54.27349
2021-11-18 04:24:00+00:00,299.0,9.78,299.0,11.72,12.41,47.59359,-54.27349
2021-11-18 04:34:00+00:00,304.0,9.12,306.0,11.51,12.41,47.59359,-54.27349
2021-11-18 04:44:00+00:00,299.0,10.36,300.0,11.84,12.41,47.59359,-54.27349
2021-11-18 04:54:00+00:00,296.0,10.26,299.0,11.64,12.41,47.59359,-54.27349
2021-11-18 05:04:00+00:00,303.0,9.81,298.0,11.56,12.41,47.59359,-54.27349
2021-11-18 05:14:01+00:00,307.0,8.99,305.0,11.4,12.41,47.59359,-54.27349
2021-11-18 05:24:01+00:00,300.0,11.29,300.0,12.28,12.41,47.59359,-54.27349
2021-11-18 05:34:01+00:00,300.0,11.15,304.0,12.47,12.41,47.59359,-54.27349
2021-11-18 05:44:01+00:00,305.0,11.45,308.0,13.2,12.41,47.59359,-54.27349
2021-11-18 05:54:01+00:00,300.0,10.84,302.0,12.21,12.41,47.59359,-54.27349
2021-11-18 06:04:01+00:00,295.0,10.55,300.0,11.7,12.41,47.59359,-54.27349
2021-11-18 06:14:00+00:00,299.0,10.43,298.0,12.28,12.41,47.59359,-54.27349
2021-11-18 06:24:00+00:00,292.0,10.39,284.0,11.29,12.41,47.59359,-54.27349
2021-11-18 06:34:00+00:00,287.0,10.11,285.0,11.49,12.41,47.59359,-54.27349
2021-11-18 06:44:00+00:00,291.0,10.57,295.0,12.01,12.41,47.59359,-54.27349
2021-11-18 06:54:00+00:00,310.0,8.71,309.0,12.13,12.41,47.59359,-54.27349
2021-11-18 07:04:00+00:00,314.0,8.25,302.0,11.14,12.41,47.59359,-54.27349
2021-11-18 07:14:00+00:00,312.0,6.63,299.0,10.62,12.41,47.59359,-54.27349
2021-11-18 07:24:00+00:00,310.0,7.22,299.0,10.24,12.41,47.59359,-54.27349
2021-11-18 07:34:00+00:00,308.0,10.36,301.0,11.82,12.41,47.59359,-54.27349
2021-11-18 07:44:00+00:00,314.0,10.08,312.0,12.8,12.41,47.59359,-54.27349
2021-11-18 07:54:00+00:00,343.0,6.64,329.0,8.06,12.41,47.59359,-54.27349
2021-11-18 08:04:00+00:00,323.0,6.84,315.0,7.75,12.41,47.59359,-54.27349
2021-11-18 08:14:00+00:00,344.0,6.57,335.0,7.85,12.41,47.59359,-54.27349
2021-11-18 08:24:00+00:00,335.0,6.26,307.0,10.5,12.41,47.59359,-54.27349
2021-11-18 08:34:00+00:00,327.0,6.07,319.0,7.47,12.41,47.59359,-54.27349
2021-11-18 08:44:00+00:00,16.0,5.42,19.0,6.35,12.41,47.59359,-54.27349
2021-11-18 08:54:00+00:00,331.0,5.32,329.0,6.28,12.41,47.59359,-54.27349
2021-11-18 09:04:00+00:00,15.0,5.3,18.0,6.36,12.41,47.59359,-54.27349
2021-11-18 09:14:01+00:00,20.0,5.28,18.0,6.26,12.41,47.59359,-54.27349
2021-11-18 09:24:01+00:00,348.0,4.24,16.0,5.99,12.41,47.59359,-54.27349
2021-11-18 09:34:01+00:00,340.0,4.95,330.0,6.19,12.41,47.59359,-54.27349
2021-11-18 09:44:01+00:00,322.0,7.2,311.0,10.49,12.41,47.59359,-54.27349
2021-11-18 09:54:01+00:00,306.0,8.93,298.0,11.85,12.41,47.59359,-54.27349
2021-11-18 10:04:01+00:00,323.0,7.5,301.0,11.3,12.41,47.59359,-54.27349
2021-11-18 10:14:00+00:00,322.0,6.35,305.0,8.04,12.33,47.59359,-54.27349
2021-11-18 10:24:00+00:00,302.0,7.54,298.0,10.33,12.33,47.59359,-54.27349
2021-11-18 10:34:00+00:00,333.0,5.09,328.0,6.34,12.33,47.59359,-54.27349
2021-11-18 10:44:00+00:00,332.0,6.67,336.0,7.72,12.33,47.59359,-54.27349
2021-11-18 10:54:00+00:00,342.0,6.47,340.0,7.72,12.33,47.59359,-54.27349
2021-11-18 11:04:00+00:00,357.0,6.64,356.0,8.04,12.33,47.59359,-54.27349
2021-11-18 11:14:00+00:00,356.0,6.59,11.0,8.21,12.41,47.59359,-54.27349
2021-11-18 11:24:00+00:00,347.0,6.48,340.0,8.22,12.41,47.59359,-54.27349
2021-11-18 11:34:00+00:00,4.0,6.31,358.0,7.39,12.41,47.59359,-54.27349
2021-11-18 11:44:00+00:00,7.0,4.71,12.0,6.27,12.41,47.59359,-54.27349
2021-11-18 11:54:00+00:00,20.0,3.4,349.0,4.78,12.41,47.59359,-54.27349
2021-11-18 12:04:00+00:00,357.0,3.51,358.0,4.7,12.41,47.59359,-54.27349
2021-11-18 12:14:01+00:00,348.0,5.45,341.0,7.82,12.57,47.59359,-54.27349
2021-11-18 12:24:01+00:00,311.0,6.36,297.0,9.92,12.57,47.59359,-54.27349
2021-11-18 12:34:01+00:00,8.0,3.49,27.0,4.82,12.57,47.59359,-54.27349
2021-11-18 12:44:01+00:00,314.0,4.82,322.0,5.67,12.57,47.59359,-54.27349
2021-11-18 12:54:01+00:00,319.0,5.1,289.0,7.87,12.57,47.59359,-54.27349
2021-11-18 13:04:01+00:00,358.0,4.94,328.0,6.5,12.57,47.59359,-54.27349
2021-11-18 13:14:00+00:00,2.0,5.48,359.0,6.55,13.44,47.59359,-54.27349
2021-11-18 13:24:00+00:00,315.0,8.04,309.0,11.2,13.44,47.59359,-54.27349
2021-11-18 13:34:00+00:00,319.0,7.42,304.0,11.12,13.44,47.59359,-54.27349
2021-11-18 13:44:00+00:00,323.0,8.44,308.0,11.05,13.44,47.59359,-54.27349
2021-11-18 13:54:00+00:00,323.0,6.21,304.0,7.8,13.44,47.59359,-54.27349
2021-11-18 14:04:00+00:00,352.0,6.34,343.0,7.91,13.44,47.59359,-54.27349
2021-11-18 14:14:00+00:00,4.0,6.23,356.0,7.08,13.76,47.59359,-54.27349
2021-11-18 14:24:00+00:00,311.0,4.41,287.0,9.65,13.76,47.59359,-54.27349
2021-11-18 14:34:00+00:00,316.0,5.12,322.0,5.89,13.76,47.59359,-54.27349
2021-11-18 14:44:00+00:00,346.0,4.86,322.0,6.35,13.76,47.59359,-54.27349
2021-11-18 14:54:00+00:00,312.0,6.35,299.0,9.91,13.76,47.59359,-54.27349
2021-11-18 15:04:00+00:00,353.0,2.57,325.0,4.37,13.76,47.59359,-54.27349
2021-11-18 15:14:00+00:00,303.0,3.1,309.0,3.79,13.76,47.59359,-54.27349
2021-11-18 15:24:00+00:00,322.0,6.1,328.0,7.01,13.76,47.59359,-54.27349
2021-11-18 15:34:00+00:00,334.0,4.2,321.0,5.28,13.76,47.59359,-54.27349
2021-11-18 15:44:00+00:00,348.0,3.25,326.0,4.57,13.76,47.59359,-54.27349
2021-11-18 15:54:00+00:00,357.0,4.8,337.0,6.12,13.76,47.59359,-54.27349
2021-11-18 16:04:00+00:00,344.0,2.07,339.0,3.02,13.76,47.59359,-54.27349
2021-11-18 16:14:01+00:00,334.0,2.03,335.0,2.42,13.68,47.59359,-54.27349
2021-11-18 16:24:01+00:00,333.0,3.17,306.0,4.11,13.68,47.59359,-54.27349
2021-11-18 16:34:01+00:00,325.0,6.36,313.0,7.97,13.68,47.59359,-54.27349
2021-11-18 16:44:01+00:00,345.0,4.13,345.0,4.84,13.68,47.59359,-54.27349
2021-11-18 16:54:01+00:00,352.0,3.18,332.0,4.2,13.68,47.59359,-54.27349
2021-11-18 17:04:01+00:00,343.0,1.92,332.0,2.48,13.68,47.59359,-54.27349
2021-11-18 17:14:01+00:00,339.0,3.56,340.0,4.53,14.32,47.59359,-54.27349
2021-11-18 17:24:01+00:00,335.0,2.22,338.0,3.1,14.32,47.59359,-54.27349
2021-11-18 17:34:01+00:00,308.0,4.62,308.0,5.36,14.32,47.59359,-54.27349
2021-11-18 17:44:01+00:00,323.0,2.94,331.0,3.51,14.32,47.59359,-54.27349
2021-11-18 17:54:01+00:00,338.0,3.12,342.0,4.58,14.32,47.59359,-54.27349
2021-11-18 18:04:01+00:00,3.0,2.28,344.0,3.97,14.32,47.59359,-54.27349
2021-11-18 18:14:01+00:00,359.0,3.08,354.0,3.89,14.32,47.59359,-54.27349
2021-11-18 18:24:01+00:00,318.0,2.22,316.0,3.38,14.32,47.59359,-54.27349
2021-11-18 18:34:01+00:00,274.0,1.75,273.0,2.43,14.32,47.59359,-54.27349
2021-11-18 18:44:01+00:00,245.0,3.34,238.0,3.88,14.32,47.59359,-54.27349
2021-11-18 18:54:01+00:00,282.0,3.15,284.0,3.76,14.32,47.59359,-54.27349
2021-11-18 19:04:01+00:00,256.0,2.68,261.0,3.17,14.32,47.59359,-54.27349
2021-11-18 19:14:01+00:00,329.0,1.04,338.0,1.73,13.68,47.59359,-54.27349
2021-11-18 19:24:01+00:00,333.0,1.29,312.0,1.78,13.68,47.59359,-54.27349
2021-11-18 19:34:01+00:00,236.0,2.18,241.0,2.67,13.68,47.59359,-54.27349
2021-11-18 19:44:01+00:00,242.0,2.16,235.0,3.02,13.68,47.59359,-54.27349
2021-11-18 19:54:01+00:00,231.0,1.75,219.0,2.14,13.68,47.59359,-54.27349
2021-11-18 20:04:01+00:00,287.0,1.58,298.0,3.02,13.68,47.59359,-54.27349
2021-11-18 20:14:01+00:00,240.0,1.69,238.0,2.34,13.05,47.59359,-54.27349
2021-11-18 20:24:01+00:00,241.0,1.99,241.0,2.74,13.05,47.59359,-54.27349
2021-11-18 20:34:01+00:00,244.0,2.84,243.0,3.41,13.05,47.59359,-54.27349
2021-11-18 20:44:01+00:00,247.0,2.11,241.0,2.64,13.05,47.59359,-54.27349
2021-11-18 20:54:01+00:00,232.0,4.29,235.0,5.45,13.05,47.59359,-54.27349
2021-11-18 21:04:01+00:00,247.0,4.63,254.0,6.08,13.05,47.59359,-54.27349
2021-11-18 21:14:01+00:00,256.0,3.78,267.0,4.38,12.65,47.59359,-54.27349
2021-11-18 21:24:01+00:00,250.0,4.12,249.0,5.41,12.65,47.59359,-54.27349
2021-11-18 21:34:01+00:00,268.0,3.73,278.0,4.84,12.65,47.59359,-54.27349
2021-11-18 21:44:01+00:00,258.0,3.09,259.0,4.38,12.65,47.59359,-54.27349
2021-11-18 21:54:01+00:00,272.0,3.04,268.0,4.04,12.65,47.59359,-54.27349
2021-11-18 22:04:01+00:00,282.0,3.17,283.0,3.92,12.65,47.59359,-54.27349
2021-11-18 22:14:01+00:00,273.0,2.89,278.0,3.88,12.57,47.59359,-54.27349
2021-11-18 22:24:01+00:00,278.0,2.92,277.0,3.83,12.57,47.59359,-54.27349
2021-11-18 22:34:01+00:00,267.0,2.04,258.0,2.58,12.57,47.59359,-54.27349
2021-11-18 22:44:01+00:00,255.0,2.71,264.0,3.18,12.57,47.59359,-54.27349
2021-11-18 22:54:01+00:00,278.0,2.68,268.0,3.23,12.57,47.59359,-54.27349
2021-11-18 23:04:01+00:00,264.0,2.59,254.0,3.29,12.57,47.59359,-54.27349
2021-11-18 23:14:01+00:00,239.0,2.87,235.0,3.81,12.57,47.59359,-54.27349
2021-11-18 23:24:01+00:00,249.0,3.63,251.0,4.3,12.57,47.59359,-54.27349
2021-11-18 23:34:01+00:00,255.0,4.45,266.0,5.42,12.57,47.59359,-54.27349
2021-11-18 23:44:01+00:00,228.0,3.95,228.0,4.34,12.57,47.59359,-54.27349
2021-11-18 23:54:01+00:00,237.0,3.31,244.0,4.29,12.57,47.59359,-54.27349
